Погода в Малом Бащелаке

Россия / Алтайский край     51°29′20″N   83°49′40″E
темп.,
°C
ветер,
м/с
пор.,
м/с
влажн.,
%
обл.,
%
осадки,
мм/ч
давл.,
гПа
погр.,
м
11 апреля, вс
вс1101:00−4всв359621 0.0 103597
04:00−5всв349521 0.0 103489
07:00−6всв349321 0.0 103572
10:00−1всв35855 0.0 1035236
13:00+2св359435 0.0 1034312
16:00+4св358926 0.0 1033273
19:00+1св349649 0.0 1036173
22:00−2всв239624 0.0 103757
12 апреля, пн
пн1201:00−2в229417 0.0 103639
04:00−3в229052 0.0 103517
07:00−3в228545 0.0 103619
10:00+5в126512 0.0 1033103
13:00+10ссв12519 0.0 1031314
16:00+11сз115260 0.0 1030352
19:00+6ссз118538 0.0 103111
22:00+2ююз019118 0.0 103210
13 апреля, вт
вт1301:00+1ю118845 0.0 103110
04:00+1ююз118861 0.0 103110
07:000юз118684 0.0 103110
10:00+4з2265100 0.0 1031239
13:00+4зсз3363100 0.1 1032478
16:00+2зсз1275100 0.0 1034219
19:00+1ссз128979 0.0 1035252
22:00−1ссв119288 0.0 103730
14 апреля, ср
ср1401:00−1св118738 0.0 103711
04:00−2ююз11916 0.0 103710
07:00−2вюв00915 0.0 103713
10:00+2с11655 0.0 1036414
13:00+6ссв12475 0.0 1034773
16:00+8ссв22505 0.0 1032926
19:00+6ссв226464 0.0 1031179
22:00+2всв1178100 0.0 103010
15 апреля, чт
чт1501:00+2юв007973 0.0 102910
04:00+1ююв118164 0.0 102810
07:00+1юв118018 0.0 102710
10:00+7ю00589 0.0 1025323
13:00+10с21405 0.0 1023904
16:00+12с21365 0.0 10211237
19:00+11ссв22500 0.0 1020321
22:00+6всв11720 0.0 102110